FENGYUN 1C DEB, 32209

Orbit data source: Space-Track

FENGYUN 1C DEB, 32209 is space debris in SSO originally from a launch on Mon, 10 May 1999 UTC launched from the Taiyaun Space Center, China (TSC). Fengyun 1C debris stems from the Chinese weather satellite Fengyun-1C, which was intentionally destroyed by a Chinese anti-satellite missile in 2007. This event dramatically increased the amount of space debris, with thousands of trackable fragments posing hazards to satellites and human spaceflight. The Fengyun 1C debris cloud has become a focal point in discussions about space sustainability and the need for international regulations to prevent the creation of new debris.

Loading next visibility...
Identifier
32209, 1999-025CVF
Orbit
SSO
Country
Flag of CNCN / PRC
Related business
Manufacturer
Unknown
Mission
Spacecraft
Bus & Motor
Unknown
Mass
Unknown
Launch date (UTC)
1999-05-10 (27 years ago)
Launch vehicle
Unknown
Launch site
Taiyaun Space Center, China (TSC)
Object type
Payload
Rocket body
Debris
Shape & HBR
Unknown shape, 0.1 m
Radar Cross Section
Small (<0.1 m²)

Expand to show TLE details & history
Last TLE update: 2 days ago

TLE from 2 days ago
0 FENGYUN 1C DEB
1 32209U 99025CVF 25350.82986485  .00001847  00000-0  22098-2 0  9999
2 32209  99.4209 298.0158 0333308  15.1266 345.9549 13.47189962900317
Epoch: 2025-12-16T19:55Z
TLE epoch observation values (Epoch: 2025-12-16T19:55:00.323Z)
Latitude
-0.00005°
Longitude
-86.44399°
Altitude
844.638 km
Speed
7.549 km/s
True Right ascension
19h 52m 03s
True Declination
0° 00' 00"
Sunlit
Object was in daylight at epoch
Visualization orbit readout
Latitude
Unknown
Longitude
Unknown
Altitude
Unknown
Speed
Unknown
Apparent Right ascension
Unknown
Apparent Declination
Unknown
Sunlit
N/A
Visualization observer readout
Local Sidereal Time
04:43:07
Azimuth
Unknown
Elevation
Unknown
Doppler factor
Unknown
Orbital elements
Apogee altitude
1,328.484 km
Perigee altitude
831.319 km
Semi-major axis
7,458.039 km
Eccentricity
0.03333
Inclination
99.4209°
RAAN
298.0158°
Arg. of periapsis
15.1266°
True anomaly
344.98905°
Mean anomaly
345.9549°
Eccentric anomaly
345.47597°
Mean motion
3.36982 °/min
Orbital period
106.83 mins
BSTAR
0.0022098
Loading maneuver chart data...
Computing Atmospheric mass density...

Documentation

Showing up to 5 results
|